Location: Brest
(52.1000°N, 23.7000°E)
Time: 16:55:18
(UTC+02:00)

Envisat - Visible Passes

Search period start: 18 December 2017 00:00
Search period end: 28 December 2017 00:00
Orbit: 764 x 766 km, 98.2° (Epoch: 18 December)

Date Brightness Start Highest point End Pass type
(mag) Time Alt. Az. Time Alt. Az. Time Alt. Az.
18 Dec 5.0 17:55:32 11° NNE 17:55:32 11° NNE 17:55:54 10° NNE visible
18 Dec 5.1 19:35:44 15° N 19:35:44 15° N 19:36:39 10° N visible
19 Dec 5.8 07:31:11 10° NE 07:33:54 14° E 07:36:37 10° ESE visible
19 Dec 4.9 18:58:33 16° N 18:58:33 16° N 18:59:38 10° N visible
19 Dec 5.8 20:38:45 11° NNW 20:38:45 11° NNW 20:38:53 10° NNW visible
20 Dec 4.9 18:21:22 14° NNE 18:21:22 14° NNE 18:22:19 10° N visible
20 Dec 5.3 20:01:34 14° NNW 20:01:34 14° NNW 20:02:18 10° NNW visible
21 Dec 5.0 19:24:23 16° N 19:24:23 16° N 19:25:28 10° N visible
22 Dec 6.0 07:20:53 10° ENE 07:22:36 12° E 07:24:18 10° ESE visible
22 Dec 4.9 18:47:12 16° NNE 18:47:12 16° NNE 18:48:22 10° N visible
22 Dec 5.6 20:27:23 12° NNW 20:27:23 12° NNW 20:27:50 10° NNW visible
23 Dec 4.9 18:09:59 13° NNE 18:09:59 13° NNE 18:10:55 10° NNE visible
23 Dec 5.2 19:50:11 16° NNW 19:50:11 16° NNW 19:51:11 10° NNW visible
24 Dec 5.7 07:45:01 10° NE 07:48:35 19° E 07:52:09 10° SE visible
24 Dec 4.9 19:12:59 17° N 19:12:59 17° N 19:14:16 10° N visible
24 Dec 5.9 20:53:11 10° NNW 20:53:11 10° NNW 20:53:12 10° NNW visible
25 Dec 4.8 18:35:46 16° NNE 18:35:46 16° NNE 18:37:05 10° N visible
25 Dec 5.4 20:15:58 15° NNW 20:15:58 15° NNW 20:16:45 10° NNW visible
26 Dec 4.9 17:58:33 12° NNE 17:58:33 12° NNE 17:59:26 10° NNE visible
26 Dec 5.0 19:38:45 18° N 19:38:45 18° N 19:40:01 10° N visible
27 Dec 5.8 07:34:18 10° NE 07:37:19 16° E 07:40:18 10° ESE visible
27 Dec 4.7 19:01:31 18° N 19:01:31 18° N 19:03:02 10° N visible
27 Dec 5.7 20:41:43 12° NNW 20:41:43 12° NNW 20:42:12 10° NNW visible
